Regional Weather Roundup
Issued by NWS

Home | Current Version | Previous Version | Text Only | Print | Product List | Glossary Off
Versions: 1 2 3 4 5 6 7 8 9 10 11 12 13 14 15 16 17 18 19 20 21 22 23 24 25 26 27 28 29 30 31 32 33 34 35 36 37 38 39 40 41 42 43 44 45 46 47 48 49 50

267
ASUS43 KOAX 272010
RWRNE

WEATHER ROUNDUP FOR NEBRASKA
NATIONAL WEATHER SERVICE OMAHA NE
300 PM CDT SAT MAY 27 2017

NOTES: SATELLITE DATA IS BEING USED TO AUGMENT CLOUD COVER ABOVE
       12000 FEET.
       "FAIR" INDICATES FEW OR NO CLOUDS BELOW 12,000 FEET WITH NO
       SIGNIFICANT WEATHER AND/OR OBSTRUCTIONS TO VISIBILITY.

  * THESE STATIONS DO NOT REPORT WEATHER SUCH AS RAIN...SNOW OR FOG.

NEZ001>004-019>022-054>056-272100-
NEBRASKA PANHANDLE

CITY           SKY/WX    TMP DP  RH WIND       PRES   REMARKS
SCOTTSBLUFF    PTSUNNY   62  43  49 N13G26    30.08S
ALLIANCE       LGT RAIN  57  45  64 N10G24    30.06S
CHADRON        CLOUDY    56  45  66 NE12      30.08R
GORDON         MOCLDY    63  44  49 N12       30.04S
KIMBALL        CLOUDY    58  41  52 N16       30.10R
SIDNEY         PTSUNNY   62  45  53 N17       30.07F
$$

NEZ057>060-069>072-079>082-272100-
SOUTHWEST NEBRASKA

CITY           SKY/WX    TMP DP  RH WIND       PRES   REMARKS
NORTH PLATTE   CLOUDY    64  54  69 N7        30.02S
IMPERIAL       CLOUDY    65  49  56 N17G25    30.02F
LEXINGTON      CLOUDY    67  54  61 N10       29.97S
MCCOOK         CLOUDY    69  53  56 N17       29.97F
OGALLALA       PTSUNNY   60  51  71 CALM      30.04F
$$

NEZ005>010-023>029-035>040-094-272100-
NORTH CENTRAL NEBRASKA

CITY           SKY/WX    TMP DP  RH WIND       PRES   REMARKS
VALENTINE      PTSUNNY   65  47  52 N5        30.01F
AINSWORTH      CLOUDY    57  53  85 CALM      30.02F
BROKEN BOW     CLOUDY    65  52  62 N18       29.99R
O`NEILL        CLOUDY    60  50  67 NW6       29.99F
ORD            CLOUDY    64  51  62 N16       29.96R
THEDFORD       CLOUDY    58  51  79 N8        30.04S
$$

NEZ041-046>049-061>064-073>077-083>087-272100-
SOUTH CENTRAL NEBRASKA

CITY           SKY/WX    TMP DP  RH WIND       PRES   REMARKS
GRAND ISLAND   MOSUNNY   73  48  41 N16       29.92S
AURORA         SUNNY     74  46  36 N9G20     29.90S
HASTINGS       SUNNY     73  52  47 N12       29.92S
HEBRON         MOSUNNY   74  60  62 NE8       29.87F
HOLDREGE       CLOUDY    70  51  51 N10       29.94S
KEARNEY *      CLOUDY    72  48  43 N13G18    29.94S
YORK           SUNNY     73  50  43 N9G17     29.88F
$$

NEZ011>018-030>034-042>045-272100-
NORTHEAST NEBRASKA

CITY           SKY/WX    TMP DP  RH WIND       PRES   REMARKS
NORFOLK        MOSUNNY   72  47  40 NE10G20   29.90F
ALBION         CLOUDY    71  51  50 N12       29.93S
BLAIR          SUNNY     71  55  55 NE12      29.86F
FREMONT        SUNNY     74  46  37 NE10G18   29.86F
TEKAMAH        SUNNY     76  47  35 NE16G26   29.85F
WAYNE          SUNNY     73  47  40 N12       29.91F
$$

NEZ050>053-065>068-078-088>093-272100-
SOUTHEAST NEBRASKA

CITY           SKY/WX    TMP DP  RH WIND       PRES   REMARKS
LINCOLN        SUNNY     73  58  59 N8        29.86F
OMAHA EPPLEY   PTSUNNY   70  57  63 NE13      29.84F
BEATRICE       SUNNY     72  61  69 N12       29.85S
FALLS CITY     PTSUNNY   70  61  73 NE9       29.83R
NEBRASKA CITY  PTSUNNY   70  61  74 NE14G20   29.84S
PLATTSMOUTH    CLOUDY    70  59  69 NE8       29.85S
$$

NEZ044-045-051>053-067-272100-
OMAHA AREA

CITY           SKY/WX    TMP DP  RH WIND       PRES   REMARKS
OMAHA EPPLEY   PTSUNNY   70  57  63 NE13      29.84F
BLAIR          SUNNY     71  55  55 NE12      29.86F
FREMONT        SUNNY     74  46  37 NE10G18   29.86F
MILLARD        PTSUNNY   71  59  66 NE6       29.85F
OFFUTT AFB     MOSUNNY   70  59  67 NE8       29.84F
PLATTSMOUTH    CLOUDY    70  59  69 NE8       29.85S
WAHOO          FAIR      75  46  36 NE13      29.85F
$$




USA.gov is the U.S. government's official web portal to all federal, state and local government web resources and services.